Hilo, HI

11:39 PM HST on July 24, 2017 (GMT -1000)
Hilo International

Weather History for PHTO - November, 2010

Change the Weather History Date:

Thursday, November 4, 2010

  Actual Average Record
Temperature  
Mean Temperature 75 °F 75 °F  
Max Temperature 81 °F 82 °F 87 °F (2015)
Min Temperature 68 °F 68 °F 64 °F (1954)
Degree Days  
Heating Degree Days 0 0  
Month to date heating degree days 0 0  
Since 1 July heating degree days 0 0  
Cooling Degree Days 10 10  
Month to date cooling degree days 35 40  
Year to date cooling degree days 2813 2775  
Growing Degree Days 24 (Base 50)    
Moisture  
Dew Point 68 °F    
Average Humidity 80    
Maximum Humidity 97    
Minimum Humidity 62    
Precipitation  
Precipitation 0.26 in 0.52 in 6.13 in (1966)
Month to date precipitation 0.63 2.00  
Year to date precipitation 45.97 101.65  
Snow  
Snow 0.00 in - - ()
Month to date snowfall 0.0  
Since 1 July snowfall 0.0  
Since 1 September snowfall 0.0  
Snow Depth 0.00 in    
Sea Level Pressure  
Sea Level Pressure 30.06 in    
Wind  
Wind Speed 5 mph (NNW)    
Max Wind Speed 14 mph    
Max Gust Speed 29 mph    
Visibility 10 miles    
Events Rain    
T = Trace of Precipitation, MM = Missing Value Source: NWS Daily Summary

Daily Weather History Graph

Daily Weather History Graph

Search for Another Location

Airport or City:

Trip Planner

Search our weather history database for the weather conditions in past years. The results will help you decide how hot, cold, wet, or windy it might be!

Date:

Astronomy

Nov. 04, 2010 Rise Set
Actual Time 6:22 AM HST 5:44 PM HST
Civil Twilight 6:00 AM HST 6:07 PM HST
Nautical Twilight 5:33 AM HST 6:33 PM HST
Astronomical Twilight 5:07 AM HST 6:59 PM HST
Moon 4:51 AM HST (11/4) 4:35 PM HST (11/4)
Length of Visible Light 12h 07m
Length of Day
11h 21m
Waning Crescent, 2% of the Moon is Illuminated
Nov 4
Waning Crescent
Nov 5
New
Nov 13
First Quarter
Nov 21
Full
Nov 28
Last Quarter

Hourly Weather History & Observations

Time (HST) Temp. Heat Index Dew Point Humidity Pressure Visibility Wind Dir Wind Speed Gust Speed Precip Events Conditions
12:53 AM 68.0 °F - 64.9 °F 90% 30.05 in 10.0 mi Calm Calm - N/A   Mostly Cloudy
1:25 AM 68.0 °F - 64.4 °F 88% 30.04 in 10.0 mi WSW 3.5 mph - N/A   Overcast
1:53 AM 69.1 °F - 64.9 °F 87% 30.04 in 10.0 mi Calm Calm - N/A   Overcast
2:50 AM 71.6 °F - 69.8 °F 94% 30.02 in 8.0 mi NNE 3.5 mph - 0.10 in Rain Light Rain
2:53 AM 72.0 °F - 69.1 °F 91% 30.02 in 10.0 mi Calm Calm - 0.10 in Rain Light Rain
3:53 AM 71.1 °F - 68.0 °F 90% 30.01 in 10.0 mi West 3.5 mph - 0.00 in   Overcast
4:53 AM 73.0 °F - 69.1 °F 87% 30.02 in 10.0 mi North 3.5 mph - N/A   Overcast
5:53 AM 72.0 °F - 69.1 °F 91% 30.04 in 10.0 mi Calm Calm - N/A   Overcast
6:14 AM 71.6 °F - 69.8 °F 94% 30.05 in 10.0 mi Calm Calm - 0.00 in Rain Light Rain
6:45 AM 71.6 °F - 68.0 °F 88% 30.06 in 10.0 mi Calm Calm - 0.00 in   Mostly Cloudy
6:53 AM 71.1 °F - 68.0 °F 90% 30.06 in 10.0 mi Calm Calm - 0.00 in   Mostly Cloudy
7:53 AM 73.9 °F - 69.1 °F 85% 30.08 in 10.0 mi NW 8.1 mph 28.8 mph N/A   Mostly Cloudy
8:53 AM 78.1 °F - 68.0 °F 71% 30.09 in 10.0 mi North 6.9 mph - N/A   Scattered Clouds
9:53 AM 79.0 °F - 66.0 °F 64% 30.09 in 10.0 mi NE 5.8 mph - N/A   Mostly Cloudy
10:53 AM 79.0 °F - 66.9 °F 66% 30.08 in 10.0 mi North 9.2 mph - N/A   Mostly Cloudy
11:53 AM 80.1 °F 82.3 °F 66.9 °F 64% 30.06 in 10.0 mi North 9.2 mph - N/A   Mostly Cloudy
12:53 PM 78.1 °F - 66.9 °F 68% 30.03 in 10.0 mi NNE 8.1 mph - N/A   Mostly Cloudy
1:53 PM 73.0 °F - 71.1 °F 93% 30.02 in 3.0 mi ENE 9.2 mph - 0.04 in Rain Heavy Rain
2:53 PM 73.0 °F - 69.1 °F 87% 30.02 in 10.0 mi NW 5.8 mph - 0.09 in   Overcast
3:02 PM 73.4 °F - 69.8 °F 88% 30.02 in 10.0 mi WNW 5.8 mph - N/A   Mostly Cloudy
3:53 PM 75.9 °F - 69.1 °F 79% 30.03 in 10.0 mi NNW 6.9 mph - N/A   Mostly Cloudy
4:53 PM 75.0 °F - 68.0 °F 79% 30.04 in 8.0 mi Calm Calm - 0.00 in Rain Rain
5:07 PM 73.4 °F - 69.8 °F 88% 30.05 in 9.0 mi Calm Calm - 0.01 in Rain Light Rain
5:22 PM 73.4 °F - 68.0 °F 83% 30.05 in 10.0 mi Calm Calm - 0.01 in   Overcast
5:53 PM 73.0 °F - 69.1 °F 87% 30.06 in 10.0 mi WSW 5.8 mph - 0.01 in   Mostly Cloudy
6:53 PM 72.0 °F - 68.0 °F 87% 30.07 in 10.0 mi Calm Calm - N/A   Scattered Clouds
7:53 PM 73.9 °F - 66.9 °F 79% 30.09 in 10.0 mi NNW 5.8 mph - N/A   Overcast
8:53 PM 73.0 °F - 66.9 °F 81% 30.09 in 10.0 mi Calm Calm - N/A   Scattered Clouds
9:53 PM 72.0 °F - 69.1 °F 91% 30.10 in 10.0 mi North 3.5 mph - 0.02 in Rain Light Rain
10:07 PM 71.6 °F - 69.8 °F 94% 30.10 in 10.0 mi NW 5.8 mph - 0.00 in Rain Light Rain
10:18 PM 71.6 °F - 69.8 °F 94% 30.10 in 10.0 mi Calm Calm - 0.00 in   Mostly Cloudy
10:53 PM 70.0 °F - 68.0 °F 93% 30.10 in 10.0 mi West 3.5 mph - 0.00 in   Mostly Cloudy
11:53 PM 70.0 °F - 66.9 °F 90% 30.09 in 10.0 mi WSW 4.6 mph - N/A   Scattered Clouds